sat.trackr.live / text

‹ back to catalog

ONEWEB-0383

NORAD 49309 · 2021-090AG

PAYLOAD ACTIVE UNKNOWN

§ Identity

Operator
Country
UK
Launch date
2021-10-14
Launch site
VOSTO
Launch vehicle
Mass (kg)
RCS (m²)

Purposes: comms

External: N2YO · Heavens-Above · Gunter

§ Orbital elements

Epoch: 2026-09-09T01:33:13.020192Z

Period
109.55 min
Inclination
87.8904°
Eccentricity
0.0002076
Mean motion
13.14501611 rev/d
Perigee alt
1,204.2 km
Apogee alt
1,207.4 km
Semi-major
7,583.9 km
B*
2.6298e-4
RAAN
272.9766°
Arg perigee
94.7236°
Mean anomaly
265.4131°
Rev number
23,861

§ Raw data

ONEWEB-03831 49309U 21090AG  26252.06473403  .00000110  00000+0  26298-3 0  99922 49309  87.8904 272.9766 0002076  94.7236 265.4131 13.14501611238613

JSON: /api/v1/satellites/49309 · /tle

For live sub-satellite position, see the globe view (requires WebGL).

§ Visibility from observer

Set your observer location to see the next 7 days of passes ≥ 10°. The values pass through the URL so the page stays shareable.

No JS? Fill the form by hand. The geolocation button needs JavaScript.